Total_Precipitation_Accumulation
2.46 2.86 3.56 4.60 5.16 5.86 5.74 5.33 5.06 4.87 4.84 4.84 4.85 4.80 4.86 5.00 5.10 5.00 4.77 4.76 4.62 4.73 5.02 4.82 4.79 4.52 4.42 4.48 4.48 4.36 4.26 4.07 3.90 3.78 3.41 2.85 2.41 2.23 2.10 2.12 2.24 2.22 2.13
2.65 3.28 3.84 4.44 4.90 5.07 5.23 5.46 5.41 5.33 5.10 5.13 5.46 5.81 5.99 5.81 5.80 5.75 5.77 5.59 5.42 5.38 5.32 5.28 4.94 4.72 4.59 4.43 4.32 4.22 4.15 3.89 3.81 3.93 3.93 3.41 3.01 2.45 1.94 2.05 2.07 2.10 2.14
2.39 3.04 3.57 4.02 4.58 4.95 5.03 5.30 5.35 5.53 5.82 6.07 6.21 6.52 6.73 6.50 6.27 5.94 5.81 5.54 5.26 5.21 5.13 5.06 4.88 4.73 4.49 4.33 4.27 4.18 4.14 3.97 3.84 3.87 4.13 3.92 3.36 2.75 2.24 2.01 2.00 2.07 2.12
2.35 2.62 3.05 3.38 3.82 4.18 4.49 4.90 5.10 5.29 5.88 6.66 6.98 6.98 7.04 6.84 6.47 6.14 5.82 5.50 5.15 4.88 4.75 4.83 4.78 4.61 4.35 4.18 3.82 3.81 3.94 4.11 3.89 3.72 3.48 3.31 3.10 3.05 2.81 2.44 2.20 2.09 2.06
2.17 2.32 2.46 2.86 3.41 3.68 3.93 4.44 4.86 5.32 5.97 6.53 6.92 7.14 7.00 6.73 6.42 5.96 5.63 5.31 4.92 4.51 4.25 4.30 4.26 4.10 3.89 3.74 3.52 3.49 3.54 3.65 3.61 3.57 3.43 3.30 3.10 2.87 2.85 2.72 2.45 2.30 2.09
2.00 2.11 2.33 2.58 2.92 3.30 3.63 3.94 4.49 5.16 5.61 5.96 6.32 6.52 6.56 6.42 6.09 5.63 5.35 5.01 4.68 4.30 3.97 3.64 3.62 3.59 3.44 3.23 3.16 3.14 3.13 3.19 3.24 3.29 3.21 3.13 3.05 2.96 2.96 2.85 2.63 2.51 2.29
1.94 2.24 2.37 2.59 2.85 3.18 3.56 3.91 4.32 4.86 5.14 5.22 5.38 5.67 5.86 5.84 5.68 5.44 5.14 4.75 4.28 3.81 3.54 3.29 3.21 3.13 3.07 2.97 2.88 2.86 2.74 2.66 2.71 2.70 2.82 2.85 2.76 2.68 2.80 2.93 2.78 2.55 2.38
2.15 2.29 2.32 2.54 2.87 3.11 3.30 3.67 3.89 4.40 4.65 4.52 4.64 4.92 5.16 5.10 4.93 4.71 4.25 3.86 3.55 3.30 3.05 2.92 2.71 2.51 2.40 2.34 2.48 2.50 2.42 2.37 2.33 2.25 2.53 2.60 2.52 2.52 2.57 2.68 2.92 2.89 2.62
2.21 2.30 2.21 2.33 2.59 2.90 3.09 3.27 3.42 3.78 4.01 3.97 4.05 4.07 4.05 4.05 3.97 3.72 3.37 3.03 2.83 2.63 2.52 2.41 2.36 2.28 2.16 2.12 2.16 2.20 2.25 2.23 2.12 2.12 2.28 2.28 2.24 2.30 2.33 2.44 2.65 2.98 2.93
1.93 2.03 2.11 2.21 2.16 2.26 2.60 2.87 2.95 3.06 3.17 3.17 3.18 3.20 3.28 3.32 3.22 2.94 2.60 2.47 2.43 2.32 2.19 2.13 2.07 2.09 2.01 1.98 2.06 2.05 2.07 2.13 2.03 2.01 2.00 1.95 1.91 2.05 2.07 2.18 2.31 2.56 2.87
1.79 1.91 2.02 2.08 1.97 1.93 2.06 2.32 2.58 2.68 2.76 2.82 2.86 2.76 2.73 2.64 2.57 2.46 2.21 2.19 2.18 2.08 1.98 1.91 1.85 1.80 1.80 1.79 1.85 1.79 1.74 1.71 1.70 1.62 1.60 1.64 1.74 1.90 1.91 1.95 2.09 2.32 2.62
1.95 1.99 2.15 2.10 1.99 2.05 2.06 2.07 2.24 2.33 2.41 2.49 2.63 2.63 2.54 2.34 2.24 2.17 2.06 1.97 1.88 1.83 1.82 1.69 1.64 1.58 1.52 1.50 1.48 1.48 1.50 1.50 1.48 1.51 1.58 1.56 1.64 1.79 1.84 1.92 1.98 2.16 2.47
2.29 2.24 2.28 2.19 2.09 2.08 1.97 1.84 1.92 2.07 2.19 2.32 2.36 2.31 2.23 2.09 1.97 1.96 1.97 1.85 1.75 1.66 1.62 1.59 1.55 1.48 1.49 1.41 1.31 1.31 1.38 1.36 1.34 1.42 1.51 1.57 1.80 1.83 1.82 1.90 1.96 2.05 2.17
2.47 2.41 2.38 2.35 2.25 2.15 1.98 1.84 1.81 1.82 1.80 1.94 2.07 2.07 2.04 2.01 1.92 1.80 1.76 1.73 1.68 1.60 1.56 1.58 1.51 1.45 1.43 1.42 1.37 1.33 1.39 1.41 1.39 1.40 1.47 1.57 1.76 1.89 1.99 1.93 2.03 2.10 2.25
2.57 2.50 2.56 2.49 2.45 2.40 2.25 2.12 1.96 1.84 1.81 1.81 1.79 1.87 1.98 1.99 1.92 1.84 1.79 1.74 1.63 1.53 1.53 1.52 1.45 1.44 1.42 1.36 1.38 1.38 1.38 1.48 1.51 1.47 1.45 1.47 1.59 1.72 1.73 1.58 1.73 1.95 2.23
2.59 2.64 2.77 2.72 2.66 2.62 2.44 2.29 2.14 1.91 1.80 1.80 1.77 1.80 1.86 1.84 1.78 1.74 1.70 1.65 1.58 1.56 1.53 1.50 1.46 1.41 1.16 1.26 1.28 1.29 1.38 1.47 1.48 1.50 1.52 1.46 1.38 1.30 1.27 1.31 1.40 1.62 1.94
2.91 2.92 2.84 2.83 2.78 2.74 2.78 2.76 2.49 2.19 2.07 1.98 1.84 1.79 1.73 1.66 1.62 1.50 1.48 1.56 1.57 1.55 1.47 1.44 1.45 1.39 1.26 1.27 1.18 1.19 1.33 1.49 1.59 1.68 1.69 1.39 1.22 1.32 1.26 1.30 1.37 1.49 1.67
2.81 2.85 2.77 2.79 2.78 2.75 2.75 2.75 2.68 2.46 2.17 2.05 1.84 1.69 1.66 1.61 1.60 1.56 1.53 1.58 1.61 1.53 1.52 1.48 1.44 1.42 1.29 1.24 1.14 1.18 1.25 1.43 1.48 1.51 1.56 1.57 1.48 1.39 1.46 1.49 1.52 1.60 1.72
2.63 2.72 2.80 2.82 2.81 2.74 2.59 2.53 2.45 2.39 2.28 2.02 1.74 1.57 1.56 1.52 1.51 1.53 1.52 1.56 1.60 1.52 1.46 1.45 1.48 1.53 1.45 1.29 1.16 1.10 1.12 1.26 1.33 1.31 1.31 1.29 1.31 1.43 1.64 1.77 1.96 2.02 2.09
2.61 2.75 2.84 2.89 2.86 2.81 2.51 2.37 2.26 2.11 1.94 1.67 1.50 1.44 1.46 1.41 1.38 1.43 1.48 1.50 1.54 1.51 1.46 1.43 1.47 1.46 1.37 1.20 1.02 0.98 1.00 1.17 1.25 1.35 1.32 1.19 1.11 1.28 1.47 1.69 2.04 2.18 2.26
2.55 2.66 2.70 2.74 2.67 2.64 2.42 2.32 2.11 1.93 1.62 1.37 1.32 1.37 1.38 1.34 1.28 1.33 1.38 1.46 1.44 1.47 1.48 1.41 1.39 1.31 1.16 1.08 0.97 0.94 0.95 1.10 1.22 1.26 1.29 1.23 1.14 1.19 1.44 1.65 1.86 2.02 2.13
2.37 2.46 2.52 2.54 2.43 2.33 2.23 2.11 1.94 1.65 1.44 1.30 1.26 1.33 1.42 1.24 1.14 1.24 1.25 1.30 1.46 1.42 1.40 1.42 1.32 1.16 1.08 0.96 0.90 0.89 0.88 0.96 1.16 1.32 1.30 1.32 1.30 1.29 1.49 1.63 1.86 2.10 2.22
2.11 2.16 2.08 2.03 2.08 2.02 1.94 1.85 1.65 1.45 1.34 1.37 1.42 1.41 1.39 1.31 1.29 1.31 1.27 1.30 1.39 1.40 1.35 1.33 1.24 1.10 1.05 0.96 0.91 0.91 0.92 0.96 1.08 1.25 1.33 1.36 1.34 1.39 1.64 1.82 2.03 2.21 2.28
1.74 1.82 1.80 1.76 1.83 1.76 1.63 1.56 1.42 1.37 1.36 1.42 1.51 1.59 1.46 1.32 1.32 1.40 1.28 1.27 1.27 1.29 1.29 1.28 1.26 1.19 1.11 0.99 0.93 0.97 1.02 1.05 1.08 1.17 1.34 1.45 1.50 1.60 1.84 2.05 2.24 2.32 2.24
1.50 1.50 1.61 1.67 1.61 1.55 1.46 1.39 1.29 1.29 1.43 1.47 1.42 1.49 1.43 1.38 1.39 1.36 1.22 1.16 1.12 1.18 1.25 1.25 1.27 1.24 1.13 1.04 1.06 1.01 0.97 1.01 1.03 1.13 1.30 1.46 1.60 1.78 1.96 2.12 2.19 2.17 2.08
1.40 1.45 1.51 1.51 1.47 1.41 1.33 1.26 1.19 1.24 1.41 1.48 1.43 1.35 1.30 1.30 1.24 1.28 1.26 1.21 1.15 1.13 1.08 1.11 1.06 1.00 1.04 1.04 0.99 0.93 0.94 0.97 1.03 1.08 1.30 1.48 1.59 1.76 1.93 2.06 2.06 1.99 1.89